sat.trackr.live / text

‹ back to catalog

MUOS-2

NORAD 39206 · 2013-036A

PAYLOAD ACTIVE UNKNOWN

§ Identity

Operator
Country
US
Launch date
2013-07-19
Launch site
AFETR
Launch vehicle
Mass (kg)
RCS (m²)
23.11

Purposes: comms

External: N2YO · Heavens-Above · Gunter

§ Orbital elements

Epoch: 2026-09-19T17:42:58.517856Z

Period
1,436.08 min
Inclination
5.1825°
Eccentricity
0.0057347
Mean motion
1.00272842 rev/d
Perigee alt
35,544.5 km
Apogee alt
36,028.1 km
Semi-major
42,164.4 km
B*
0.0000e+0
RAAN
45.5472°
Arg perigee
177.9729°
Mean anomaly
212.8504°
Rev number
4,814

§ Raw data

MUOS-21 39206U 13036A   26262.73817729 -.00000014  00000+0  00000+0 0  99992 39206   5.1825  45.5472 0057347 177.9729 212.8504  1.00272842 48143

JSON: /api/v1/satellites/39206 · /tle

For live sub-satellite position, see the globe view (requires WebGL).

§ Visibility from observer

Set your observer location to see the next 7 days of passes ≥ 10°. The values pass through the URL so the page stays shareable.

No JS? Fill the form by hand. The geolocation button needs JavaScript.